Tracking 19827 objects as of 21-Aug-2019
HD Live streaming from Space Station
objects crossing your sky now

FENGYUN 1C DEB

Track FENGYUN 1C DEB now!
10-day predictions


NORAD ID: 30333
Int'l Code: 1999-025AAU
Perigee: 513.2 km
Apogee: 722.6 km
Inclination: 98.9 °
Period: 96.9 minutes
Semi major axis: 6988 km
RCS: 0.026 m2 (small)
Launch date: May 10, 1999
Source: People's Republic of China (PRC)
Launch site: Taiyaun Space Center, China (TSC)

Note: This is SATELLITE DEBRIS
aabbcc
Your satellite tracking list
Your tracking list is empty




NASA's NSSDC Master Catalog

Two Line Element Set (TLE):
1 30333U 99025AAU 19232.88512932 +.00000382 +00000-0 +43346-4 0  9999
2 30333 098.8888 353.7708 0149816 053.7197 064.8718 14.85896786674527
Source of the keplerian elements: AFSPC